FW8246 Weather Reports


time (UTC)temp
C
wind
direction
speed
KPH
gust
KPH
rain 1hr
cm
rain 24hr
cm
rain mn
cm
humidity
%
barometer
mb
20260504033051 6 0 0.0 0.0 0.00 0.00 0.00 90 1021.2
20260504031557 6 0 0.0 0.0 0.00 0.00 0.00 90 1021.3
20260504030052 7 0 0.0 0.0 0.00 0.00 0.00 89 1021.3
20260504024553 7 0 0.0 1.6 0.00 0.00 0.00 89 1021.4
20260504023059 7 0 0.0 1.6 0.00 0.00 0.00 90 1021.5
20260504021552 8 13 0.0 3.2 0.00 0.00 0.00 90 1021.5
20260504020053 8 29 0.0 4.8 0.00 0.00 0.00 90 1021.5
20260504014606 8 0 0.0 0.0 0.00 0.00 0.00 90 1021.5
20260504013058 8 0 0.0 3.2 0.00 0.00 0.00 90 1021.5
20260504011550 8 352 1.6 6.4 0.00 0.00 0.00 90 1021.5
20260504010055 8 0 0.0 0.0 0.00 0.00 0.00 90 1021.6
20260504004552 8 0 0.0 0.0 0.00 0.00 0.00 90 1021.5
20260504003058 8 0 0.0 0.0 0.00 0.00 0.00 89 1021.5
20260504001605 8 0 0.0 1.6 0.00 0.00 0.00 89 1021.4
20260504000124 8 0 0.0 1.6 0.00 0.00 0.00 88 1021.5
20260503234556 9 15 0.0 1.6 0.00 0.00 0.00 87 1021.7
20260503233050 9 0 0.0 3.2 0.00 0.00 0.00 88 1021.8
20260503231552 9 16 0.0 1.6 0.00 0.00 0.00 89 1021.8
20260503230059 8 0 0.0 1.6 0.00 0.00 0.00 89 1022.0
20260503224555 9 0 0.0 0.0 0.00 0.00 0.00 88 1022.2
20260503223058 9 0 0.0 3.2 0.00 0.00 0.00 88 1022.2
20260503221558 9 0 0.0 3.2 0.00 0.00 0.00 87 1022.1
20260503220058 10 0 0.0 3.2 0.00 0.00 0.00 86 1022.1
20260503214555 10 0 0.0 0.0 0.00 0.00 0.00 86 1022.1
20260503213052 10 0 0.0 0.0 0.00 0.00 0.00 85 1021.9
20260503211551 11 0 0.0 0.0 0.00 0.00 0.00 81 1021.8
20260503210049 12 0 0.0 3.2 0.00 0.00 0.00 79 1021.7
20260503204551 12 47 1.6 4.8 0.00 0.00 0.00 77 1021.5
20260503203048 12 85 0.0 6.4 0.00 0.00 0.00 77 1021.6
20260503201546 11 32 0.0 12.9 0.00 0.00 0.00 83 1021.5
20260503200051 11 0 0.0 1.6 0.00 0.00 0.00 84 1021.8
20260503194551 11 0 0.0 1.6 0.00 0.00 0.00 83 1021.8
20260503193104 11 0 0.0 1.6 0.00 0.00 0.00 82 1021.6
20260503191558 11 0 0.0 3.2 0.00 0.00 0.00 82 1021.5
20260503190053 11 0 0.0 3.2 0.00 0.00 0.00 82 1021.1
20260503184549 12 0 0.0 1.6 0.00 0.00 0.00 81 1021.0
20260503183106 12 0 0.0 0.0 0.00 0.00 0.00 81 1021.0
20260503181617 13 0 0.0 0.0 0.00 0.00 0.00 79 1020.8
20260503180054 13 0 0.0 0.0 0.00 0.00 0.00 76 1020.6
20260503174548 15 0 0.0 0.0 0.00 0.00 0.00 75 1020.4
20260503173056 16 0 0.0 0.0 0.00 0.00 0.00 70 1020.2
20260503171556 16 0 0.0 4.8 0.00 0.00 0.00 67 1020.1
20260503150106 20 273 1.6 11.3 0.00 0.00 0.00 54 1020.8
20260503100106 18 254 1.6 8.0 0.00 0.00 0.00 57 1022.4
20260503081550 16 0 1.6 6.4 0.00 0.00 0.00 59 1022.7
20260503071557 13 0 0.0 4.8 0.00 0.00 0.00 62 1023.2
20260503070109 13 0 0.0 4.8 0.00 0.00 0.00 65 1023.3
20260503060119 12 0 0.0 6.4 0.00 0.00 0.00 63 1022.9
20260503054546 11 0 0.0 9.7 0.00 0.00 0.00 66 1023.1
20260503053053 10 0 0.0 4.8 0.00 0.00 0.00 74 1023.2
20260503051551 8 0 0.0 0.0 0.00 0.00 0.00 83 1023.1
20260503050055 6 0 0.0 0.0 0.00 0.00 0.00 85 1023.0
20260503044548 6 0 0.0 0.0 0.00 0.00 0.00 85 1023.0
20260503043046 6 0 0.0 0.0 0.00 0.00 0.00 84 1022.9
20260503041549 6 0 0.0 4.8 0.00 0.00 0.00 84 1022.4
20260503040052 5 0 1.6 4.8 0.00 0.00 0.00 84 1022.5
20260503034601 6 10 0.0 1.6 0.00 0.00 0.00 80 1022.4